• în Republica Moldova
  • Lista ţărilor
  • Pe 7 zile
  • Temperatura apei
  • Hartă satelitară
  • Meteo pe hartă
  • Widget-uri
  • user-avatar
    Intrare

    Meteo pe oră la Benguela

    Astăzi, 30 Aprilie, Duminică

    Timp Temperatura Precipitaţii Vânt Presiune Umiditate
    00:00 +28°C° 0 mm 2 m/s 759 mmHg 66%
    01:00 +28°C° 0 mm 2 m/s 759 mmHg 65%
    02:00 +28°C° 0 mm 2 m/s 759 mmHg 65%
    03:00 +28°C° 0 mm 2 m/s 759 mmHg 65%
    04:00 +27°C° 0 mm 2 m/s 759 mmHg 64%
    05:00 +28°C° 0 mm 2 m/s 759 mmHg 62%
    06:00 +28°C° 0 mm 2 m/s 759 mmHg 59%
    07:00 +29°C° 0 mm 2 m/s 760 mmHg 54%
    08:00 +32°C° 0 mm 2 m/s 760 mmHg 46%
    09:00 +36°C° 0 mm 3 m/s 760 mmHg 39%
    10:00 +38°C° 0 mm 3 m/s 760 mmHg 31%
    11:00 +39°C° 0 mm 3 m/s 759 mmHg 28%
    12:00 +41°C° 0 mm 4 m/s 758 mmHg 26%
    13:00 +42°C° 0 mm 5 m/s 758 mmHg 26%
    14:00 +41°C° 0 mm 5 m/s 757 mmHg 28%
    15:00 +41°C° 0 mm 5 m/s 757 mmHg 29%
    16:00 +40°C° 0 mm 5 m/s 756 mmHg 31%
    17:00 +36°C° 0 mm 5 m/s 757 mmHg 41%
    18:00 +33°C° 0 mm 4 m/s 757 mmHg 51%
    19:00 +30°C° 0 mm 3 m/s 757 mmHg 60%
    20:00 +29°C° 0 mm 2 m/s 758 mmHg 63%
    21:00 +28°C° 0 mm 2 m/s 758 mmHg 66%
    22:00 +28°C° 0 mm 2 m/s 758 mmHg 68%
    23:00 +28°C° 0 mm 2 m/s 758 mmHg 67%

    Mâine, 1 Mai, Luni

    Timp Temperatura Precipitaţii Vânt Presiune Umiditate
    00:00 +28°C° 0 mm 2 m/s 758 mmHg 65%
    01:00 +28°C° 0 mm 2 m/s 758 mmHg 64%
    02:00 +28°C° 0 mm 2 m/s 758 mmHg 60%
    03:00 +27°C° 0 mm 2 m/s 758 mmHg 57%
    04:00 +27°C° 0 mm 2 m/s 758 mmHg 54%
    05:00 +28°C° 0 mm 2 m/s 758 mmHg 52%
    06:00 +28°C° 0 mm 2 m/s 758 mmHg 50%
    07:00 +28°C° 0 mm 2 m/s 758 mmHg 49%
    08:00 +31°C° 0 mm 2 m/s 759 mmHg 42%
    09:00 +35°C° 0 mm 2 m/s 759 mmHg 35%
    10:00 +38°C° 0 mm 3 m/s 759 mmHg 29%
    11:00 +39°C° 0 mm 3 m/s 758 mmHg 26%
    12:00 +41°C° 0 mm 4 m/s 757 mmHg 24%
    13:00 +42°C° 0 mm 4 m/s 757 mmHg 22%
    14:00 +41°C° 0 mm 4 m/s 756 mmHg 24%
    15:00 +41°C° 0 mm 4 m/s 756 mmHg 26%
    16:00 +40°C° 0 mm 5 m/s 756 mmHg 28%
    17:00 +36°C° 0 mm 4 m/s 756 mmHg 39%
    18:00 +33°C° 0 mm 3 m/s 756 mmHg 50%
    19:00 +29°C° 0 mm 2 m/s 757 mmHg 62%
    20:00 +28°C° 0 mm 2 m/s 757 mmHg 65%
    21:00 +28°C° 0 mm 2 m/s 758 mmHg 68%
    22:00 +27°C° 0 mm 2 m/s 758 mmHg 72%
    23:00 +27°C° 0 mm 2 m/s 758 mmHg 69%

    Poimâine, 2 Mai, Marţi

    Timp Temperatura Precipitaţii Vânt Presiune Umiditate
    00:00 +27°C° 0 mm 2 m/s 758 mmHg 66%
    01:00 +27°C° 0 mm 2 m/s 758 mmHg 63%
    02:00 +27°C° 0 mm 2 m/s 758 mmHg 60%
    03:00 +27°C° 0 mm 1 m/s 758 mmHg 57%
    04:00 +27°C° 0 mm 1 m/s 758 mmHg 53%
    05:00 +27°C° 0 mm 1 m/s 758 mmHg 51%
    06:00 +28°C° 0 mm 1 m/s 758 mmHg 48%
    07:00 +28°C° 0 mm 1 m/s 758 mmHg 46%
    08:00 +31°C° 0 mm 1 m/s 759 mmHg 40%
    09:00 +33°C° 0 mm 1 m/s 759 mmHg 34%
    10:00 +36°C° 0 mm 1 m/s 759 mmHg 29%
    11:00 +38°C° 0 mm 2 m/s 758 mmHg 27%
    12:00 +39°C° 0 mm 3 m/s 757 mmHg 25%
    13:00 +40°C° 0 mm 3 m/s 757 mmHg 24%
    14:00 +41°C° 0 mm 4 m/s 756 mmHg 25%
    15:00 +40°C° 0 mm 5 m/s 756 mmHg 26%
    16:00 +40°C° 0 mm 5 m/s 755 mmHg 26%
    17:00 +36°C° 0 mm 4 m/s 756 mmHg 35%
    18:00 +33°C° 0 mm 3 m/s 756 mmHg 44%
    19:00 +29°C° 0 mm 2 m/s 756 mmHg 53%
    20:00 +29°C° 0 mm 2 m/s 757 mmHg 54%
    21:00 +28°C° 0 mm 2 m/s 757 mmHg 56%
    22:00 +28°C° 0 mm 2 m/s 758 mmHg 57%
    23:00 +27°C° 0 mm 2 m/s 758 mmHg 56%

    3 Mai, Miercuri

    Timp Temperatura Precipitaţii Vânt Presiune Umiditate
    00:00 +27°C° 0 mm 2 m/s 758 mmHg 56%
    01:00 +27°C° 0 mm 2 m/s 758 mmHg 55%
    02:00 +27°C° 0 mm 2 m/s 758 mmHg 55%
    03:00 +27°C° 0 mm 2 m/s 757 mmHg 54%
    04:00 +27°C° 0 mm 2 m/s 757 mmHg 54%
    05:00 +27°C° 0 mm 2 m/s 757 mmHg 52%
    06:00 +28°C° 0 mm 2 m/s 758 mmHg 49%
    07:00 +29°C° 0 mm 2 m/s 758 mmHg 47%
    08:00 +31°C° 0 mm 2 m/s 758 mmHg 40%
    09:00 +35°C° 0 mm 2 m/s 758 mmHg 34%
    10:00 +37°C° 0 mm 2 m/s 759 mmHg 27%
    11:00 +38°C° 0 mm 2 m/s 758 mmHg 26%
    12:00 +39°C° 0 mm 3 m/s 757 mmHg 24%
    13:00 +41°C° 0 mm 4 m/s 757 mmHg 23%
    14:00 +40°C° 0 mm 4 m/s 756 mmHg 25%
    15:00 +40°C° 0 mm 5 m/s 756 mmHg 28%
    16:00 +39°C° 0 mm 5 m/s 755 mmHg 30%
    17:00 +35°C° 0 mm 4 m/s 756 mmHg 40%
    18:00 +31°C° 0 mm 3 m/s 756 mmHg 50%
    19:00 +29°C° 0 mm 2 m/s 757 mmHg 59%
    20:00 +28°C° 0 mm 2 m/s 757 mmHg 61%
    21:00 +27°C° 0 mm 2 m/s 758 mmHg 63%
    22:00 +27°C° 0 mm 1 m/s 758 mmHg 65%
    23:00 +27°C° 0 mm 1 m/s 758 mmHg 64%

    4 Mai, Joi

    Timp Temperatura Precipitaţii Vânt Presiune Umiditate
    00:00 +27°C° 0 mm 2 m/s 758 mmHg 62%
    01:00 +27°C° 0 mm 2 m/s 757 mmHg 61%
    02:00 +27°C° 0 mm 2 m/s 757 mmHg 60%
    03:00 +27°C° 0 mm 2 m/s 757 mmHg 60%
    04:00 +26°C° 0 mm 2 m/s 757 mmHg 59%
    05:00 +27°C° 0 mm 2 m/s 757 mmHg 57%
    06:00 +28°C° 0 mm 2 m/s 758 mmHg 54%
    07:00 +29°C° 0 mm 2 m/s 758 mmHg 51%
    08:00 +31°C° 0 mm 2 m/s 758 mmHg 43%
    09:00 +35°C° 0 mm 2 m/s 758 mmHg 35%
    10:00 +38°C° 0 mm 2 m/s 758 mmHg 28%
    11:00 +39°C° 0 mm 3 m/s 758 mmHg 26%
    12:00 +40°C° 0 mm 3 m/s 757 mmHg 24%
    13:00 +42°C° 0 mm 4 m/s 756 mmHg 23%
    14:00 +41°C° 0 mm 4 m/s 756 mmHg 25%
    15:00 +40°C° 0 mm 5 m/s 755 mmHg 28%
    16:00 +40°C° 0 mm 5 m/s 755 mmHg 30%
    17:00 +36°C° 0 mm 4 m/s 755 mmHg 39%
    18:00 +33°C° 0 mm 3 m/s 756 mmHg 48%
    19:00 +29°C° 0 mm 2 m/s 756 mmHg 58%
    20:00 +28°C° 0 mm 2 m/s 757 mmHg 60%
    21:00 +28°C° 0 mm 2 m/s 757 mmHg 62%
    22:00 +27°C° 0 mm 2 m/s 757 mmHg 64%
    23:00 +27°C° 0 mm 2 m/s 757 mmHg 63%

    5 Mai, Vineri

    Timp Temperatura Precipitaţii Vânt Presiune Umiditate
    00:00 +27°C° 0 mm 2 m/s 757 mmHg 63%
    01:00 +27°C° 0 mm 2 m/s 757 mmHg 63%
    02:00 +27°C° 0 mm 2 m/s 757 mmHg 62%
    03:00 +27°C° 0 mm 2 m/s 757 mmHg 62%
    04:00 +27°C° 0 mm 2 m/s 756 mmHg 61%
    05:00 +27°C° 0 mm 2 m/s 757 mmHg 57%
    06:00 +28°C° 0 mm 2 m/s 757 mmHg 53%
    07:00 +29°C° 0 mm 2 m/s 758 mmHg 49%
    08:00 +32°C° 0 mm 2 m/s 758 mmHg 42%
    09:00 +36°C° 0 mm 2 m/s 758 mmHg 34%
    10:00 +38°C° 0 mm 2 m/s 758 mmHg 27%
    11:00 +39°C° 0 mm 3 m/s 757 mmHg 26%
    12:00 +40°C° 0 mm 3 m/s 756 mmHg 24%
    13:00 +42°C° 0 mm 4 m/s 755 mmHg 23%
    14:00 +41°C° 0 mm 4 m/s 755 mmHg 26%
    15:00 +40°C° 0 mm 5 m/s 755 mmHg 29%
    16:00 +40°C° 0 mm 5 m/s 755 mmHg 32%
    17:00 +36°C° 0 mm 4 m/s 755 mmHg 42%
    18:00 +33°C° 0 mm 3 m/s 756 mmHg 52%
    19:00 +29°C° 0 mm 2 m/s 756 mmHg 62%
    20:00 +28°C° 0 mm 2 m/s 757 mmHg 63%
    21:00 +28°C° 0 mm 2 m/s 757 mmHg 65%
    22:00 +28°C° 0 mm 1 m/s 757 mmHg 66%
    23:00 +28°C° 0 mm 1 m/s 757 mmHg 65%
    Arată mai mult